Terminal Aerodrome Forecast
Issued by NWS Sterling, VA

Current Version | Previous Version | Text Only | Print | Product List | Glossary Off
Versions: 1 2 3 4 5 6 7 8 9 10 11 12 13 14 15 16 17 18 19 20 21 22 23 24 25 26

000
FTUS41 KLWX 160500 RRA
TAFMRB
TAF
KMRB 160542Z 1606/1706 00000KT 5SM BR BKN100
     FM161400 VRB03KT 5SM -SHRA OVC040
     FM162000 18006KT P6SM OVC025
     FM170000 23004KT P6SM SCT050=

USA.gov is the U.S. government's official web portal to all federal, state and local government web resources and services.